BAW5816 EBCI-EDDH

Flight info

Callsign BAW5816
Flight time 0h 59m
Altitude 27000
Route CIV5Y CIV Y50 FERDI N873 VICOT PABCO M105 RIBSO RIBS3S
Aircraft MD11/M-SDE1E2E3FGHIJ2J3J4J5M1RWXYZ/LB1D1

Departure

Time 2026-05-06 16:59
Airport Brussels South Charleroi Airport (EBCI)

Arrival

Time 2026-05-06 17:59
Airport Hamburg Helmut Schmidt Airport (EDDH)
Time Latitude Longitude Altitude Speed Heading
2026-05-06 16:46 50.46764 4.46754 585 ft 0 kts 155°
2026-05-06 16:55 50.46756 4.46759 586 ft 4 kts 155°
2026-05-06 16:55 50.46714 4.46789 585 ft 8 kts 153°
2026-05-06 16:55 50.46692 4.46809 585 ft 2 kts 123°
2026-05-06 16:56 50.46698 4.46860 583 ft 8 kts 65°
2026-05-06 16:56 50.46738 4.46996 578 ft 18 kts 66°
2026-05-06 16:56 50.46803 4.47227 572 ft 27 kts 65°
2026-05-06 16:56 50.46881 4.47512 563 ft 13 kts 66°
2026-05-06 16:57 50.46856 4.47647 564 ft 10 kts 152°
2026-05-06 16:57 50.46844 4.47655 564 ft 0 kts 159°
2026-05-06 16:58 50.46817 4.47672 565 ft 8 kts 155°
2026-05-06 16:58 50.46735 4.47709 568 ft 16 kts 186°
2026-05-06 16:58 50.46646 4.47549 569 ft 26 kts 245°
2026-05-06 16:58 50.46505 4.47065 576 ft 84 kts 246°
2026-05-06 16:59 50.46145 4.45835 608 ft 160 kts 247°
2026-05-06 16:59 50.45593 4.44022 1014 ft 193 kts 244°
2026-05-06 16:59 50.45050 4.42254 2133 ft 186 kts 247°
2026-05-06 16:59 50.44477 4.40290 2823 ft 206 kts 249°
2026-05-06 17:00 50.43910 4.38268 3796 ft 210 kts 250°
2026-05-06 17:00 50.43340 4.36212 3919 ft 203 kts 250°
2026-05-06 17:00 50.42782 4.34218 3981 ft 196 kts 250°
2026-05-06 17:00 50.42237 4.32275 4025 ft 198 kts 250°
2026-05-06 17:01 50.41638 4.30139 4261 ft 234 kts 249°
2026-05-06 17:01 50.41020 4.27534 4470 ft 277 kts 262°
2026-05-06 17:01 50.40996 4.24612 5872 ft 272 kts 284°
2026-05-06 17:01 50.41689 4.21860 6956 ft 281 kts 303°
2026-05-06 17:02 50.42732 4.19346 8327 ft 284 kts 306°
2026-05-06 17:02 50.43913 4.16667 8919 ft 317 kts 306°
2026-05-06 17:02 50.45269 4.13819 9644 ft 341 kts 318°
2026-05-06 17:02 50.47323 4.12128 11020 ft 343 kts 347°
2026-05-06 17:03 50.49677 4.11839 12311 ft 349 kts 360°
2026-05-06 17:03 50.52101 4.11951 13538 ft 357 kts
2026-05-06 17:03 50.54579 4.12049 14719 ft 364 kts 360°
2026-05-06 17:03 50.57147 4.12055 15674 ft 378 kts 359°
2026-05-06 17:04 50.59878 4.11968 16123 ft 405 kts 358°
2026-05-06 17:04 50.62682 4.11810 17202 ft 413 kts 357°
2026-05-06 17:04 50.65571 4.11607 18447 ft 417 kts 356°
2026-05-06 17:04 50.68438 4.11381 19521 ft 425 kts 356°
2026-05-06 17:05 50.71409 4.11140 20534 ft 433 kts 356°
2026-05-06 17:05 50.74443 4.10897 21609 ft 440 kts 356°
2026-05-06 17:05 50.77502 4.10658 22643 ft 447 kts 356°
2026-05-06 17:05 50.80615 4.10416 23585 ft 452 kts 356°
2026-05-06 17:06 50.83763 4.10170 23969 ft 455 kts 356°
2026-05-06 17:06 50.86901 4.09922 24049 ft 455 kts 356°
2026-05-06 17:06 50.90039 4.09672 24101 ft 456 kts 356°
2026-05-06 17:06 50.93214 4.09418 24127 ft 457 kts 356°
2026-05-06 17:07 50.96401 4.09165 24138 ft 457 kts 356°
2026-05-06 17:07 50.99579 4.08913 24138 ft 458 kts 356°
2026-05-06 17:07 51.02755 4.08663 24136 ft 458 kts 356°
2026-05-06 17:07 51.05918 4.08414 24138 ft 459 kts 356°
2026-05-06 17:08 51.09119 4.08159 24615 ft 464 kts 356°
2026-05-06 17:08 51.12304 4.07906 25838 ft 466 kts 356°
2026-05-06 17:08 51.15581 4.07646 26632 ft 476 kts 356°
2026-05-06 17:08 51.18922 4.07383 27044 ft 487 kts 356°
2026-05-06 17:09 51.22364 4.07110 27102 ft 508 kts 356°
2026-05-06 17:09 51.25860 4.06835 27149 ft 507 kts 356°
2026-05-06 17:09 51.29380 4.06559 27180 ft 502 kts 356°
2026-05-06 17:09 51.32844 4.06284 27183 ft 500 kts 356°
2026-05-06 17:10 51.36298 4.06000 27193 ft 501 kts 356°
2026-05-06 17:10 51.39801 4.05711 27197 ft 501 kts 356°
2026-05-06 17:10 51.43268 4.05454 27175 ft 501 kts 358°
2026-05-06 17:10 51.46747 4.05800 27174 ft 502 kts
2026-05-06 17:11 51.50166 4.06996 27213 ft 505 kts 15°
2026-05-06 17:11 51.53439 4.08983 27219 ft 508 kts 24°
2026-05-06 17:11 51.56501 4.11685 27197 ft 508 kts 32°
2026-05-06 17:11 51.59327 4.15112 27186 ft 508 kts 40°
2026-05-06 17:12 51.61800 4.19149 27196 ft 510 kts 49°
2026-05-06 17:12 51.63903 4.23769 27193 ft 511 kts 57°
2026-05-06 17:12 51.65554 4.28743 27185 ft 510 kts 65°
2026-05-06 17:12 51.67007 4.33961 27186 ft 510 kts 64°
2026-05-06 17:13 51.68628 4.39006 27186 ft 511 kts 59°
2026-05-06 17:13 51.70520 4.43839 27182 ft 510 kts 55°
2026-05-06 17:13 51.72600 4.48439 27180 ft 510 kts 52°
2026-05-06 17:13 51.74797 4.52897 27181 ft 510 kts 50°
2026-05-06 17:14 51.77072 4.57293 27182 ft 511 kts 49°
2026-05-06 17:14 51.79361 4.61592 27175 ft 510 kts 48°
2026-05-06 17:14 51.81691 4.65906 27170 ft 510 kts 49°
2026-05-06 17:14 51.84046 4.70239 27165 ft 510 kts 48°
2026-05-06 17:15 51.86381 4.74524 27173 ft 511 kts 48°
2026-05-06 17:15 51.88727 4.78822 27176 ft 511 kts 48°
2026-05-06 17:15 51.91066 4.83102 27166 ft 510 kts 48°
2026-05-06 17:15 51.93404 4.87379 27173 ft 510 kts 48°
2026-05-06 17:16 51.95734 4.91635 27178 ft 510 kts 48°
2026-05-06 17:16 51.98092 4.95938 27177 ft 511 kts 48°
2026-05-06 17:16 52.00446 5.00230 27179 ft 511 kts 48°
2026-05-06 17:16 52.02821 5.04553 27180 ft 511 kts 48°
2026-05-06 17:17 52.05153 5.08795 27182 ft 511 kts 48°
2026-05-06 17:17 52.07539 5.13129 27183 ft 511 kts 48°
2026-05-06 17:17 52.09855 5.17443 27180 ft 511 kts 49°
2026-05-06 17:17 52.12138 5.21793 27182 ft 510 kts 49°
2026-05-06 17:18 52.14446 5.26222 27184 ft 511 kts 49°
2026-05-06 17:18 52.16747 5.30642 27186 ft 512 kts 49°
2026-05-06 17:18 52.19029 5.35014 27188 ft 512 kts 49°
2026-05-06 17:18 52.21319 5.39394 27188 ft 512 kts 49°
2026-05-06 17:19 52.23642 5.43829 27189 ft 512 kts 49°
2026-05-06 17:19 52.25989 5.48306 27190 ft 513 kts 49°
2026-05-06 17:19 52.28323 5.52751 27191 ft 512 kts 49°
2026-05-06 17:19 52.30639 5.57162 27192 ft 513 kts 49°
2026-05-06 17:20 52.32986 5.61627 27186 ft 513 kts 49°
2026-05-06 17:20 52.35309 5.66047 27176 ft 512 kts 49°
2026-05-06 17:20 52.37660 5.70514 27173 ft 512 kts 49°
2026-05-06 17:20 52.39952 5.74869 27174 ft 512 kts 49°
2026-05-06 17:21 52.42281 5.79288 27175 ft 512 kts 49°
2026-05-06 17:21 52.44596 5.83677 27175 ft 512 kts 49°
2026-05-06 17:21 52.46937 5.88112 27177 ft 512 kts 49°
2026-05-06 17:21 52.49216 5.92540 27146 ft 512 kts 52°
2026-05-06 17:22 52.51198 5.97372 27196 ft 512 kts 58°
2026-05-06 17:22 52.53025 6.02410 27225 ft 515 kts 60°
2026-05-06 17:22 52.54824 6.07472 27192 ft 513 kts 59°
2026-05-06 17:22 52.56647 6.12544 27178 ft 512 kts 59°
2026-05-06 17:23 52.58471 6.17530 27177 ft 514 kts 59°
2026-05-06 17:23 52.60332 6.22539 27180 ft 513 kts 58°
2026-05-06 17:23 52.62203 6.27522 27175 ft 514 kts 58°
2026-05-06 17:23 52.64102 6.32552 27175 ft 514 kts 58°
2026-05-06 17:24 52.65991 6.37549 27172 ft 514 kts 58°
2026-05-06 17:24 52.67850 6.42462 27171 ft 514 kts 58°
2026-05-06 17:24 52.69756 6.47496 27171 ft 514 kts 58°
2026-05-06 17:24 52.71654 6.52504 27169 ft 514 kts 58°
2026-05-06 17:25 52.73531 6.57453 27170 ft 515 kts 58°
2026-05-06 17:25 52.75414 6.62413 27168 ft 515 kts 58°
2026-05-06 17:25 52.77316 6.67418 27168 ft 515 kts 58°
2026-05-06 17:25 52.79234 6.72462 27166 ft 515 kts 58°
2026-05-06 17:26 52.81133 6.77446 27163 ft 515 kts 58°
2026-05-06 17:26 52.83029 6.82412 27161 ft 515 kts 58°
2026-05-06 17:26 52.84943 6.87418 27160 ft 515 kts 58°
2026-05-06 17:26 52.86834 6.92363 27160 ft 515 kts 58°
2026-05-06 17:27 52.88744 6.97353 27158 ft 515 kts 58°
2026-05-06 17:27 52.90677 7.02395 27166 ft 516 kts 58°
2026-05-06 17:27 52.92596 7.07399 27175 ft 517 kts 58°
2026-05-06 17:27 52.94499 7.12446 27169 ft 517 kts 59°
2026-05-06 17:28 52.96334 7.17512 27172 ft 516 kts 59°
2026-05-06 17:28 52.98174 7.22662 27172 ft 515 kts 59°
2026-05-06 17:28 52.99996 7.27770 27176 ft 515 kts 59°
2026-05-06 17:28 53.01811 7.32841 27177 ft 515 kts 59°
2026-05-06 17:29 53.03642 7.37938 27177 ft 516 kts 59°
2026-05-06 17:29 53.05498 7.43090 27180 ft 516 kts 59°
2026-05-06 17:29 53.07324 7.48146 27178 ft 515 kts 59°
2026-05-06 17:29 53.09161 7.53226 27179 ft 515 kts 59°
2026-05-06 17:30 53.11005 7.58317 27174 ft 515 kts 58°
2026-05-06 17:30 53.12841 7.63380 27163 ft 514 kts 58°
2026-05-06 17:30 53.14702 7.68504 27160 ft 514 kts 59°
2026-05-06 17:30 53.16555 7.73587 26955 ft 510 kts 59°
2026-05-06 17:31 53.18356 7.78538 26755 ft 502 kts 59°
2026-05-06 17:31 53.20164 7.83498 26585 ft 493 kts 59°
2026-05-06 17:31 53.21927 7.88327 26426 ft 484 kts 59°
2026-05-06 17:31 53.23635 7.92995 26278 ft 474 kts 58°
2026-05-06 17:32 53.25350 7.97676 26129 ft 462 kts 58°
2026-05-06 17:32 53.26987 8.02146 25951 ft 448 kts 58°
2026-05-06 17:32 53.28576 8.06483 25630 ft 435 kts 58°
2026-05-06 17:32 53.30141 8.10752 24404 ft 439 kts 58°
2026-05-06 17:33 53.31668 8.15103 23167 ft 432 kts 60°
2026-05-06 17:33 53.33017 8.19487 22275 ft 418 kts 65°
2026-05-06 17:33 53.34135 8.23928 20908 ft 416 kts 68°
2026-05-06 17:33 53.35147 8.28348 19765 ft 405 kts 69°
2026-05-06 17:34 53.36116 8.32632 18558 ft 397 kts 68°
2026-05-06 17:34 53.37093 8.36886 17223 ft 390 kts 68°
2026-05-06 17:34 53.38046 8.41001 16082 ft 376 kts 68°
2026-05-06 17:34 53.38972 8.44983 14806 ft 366 kts 68°
2026-05-06 17:35 53.39872 8.48817 13517 ft 355 kts 66°
2026-05-06 17:35 53.40807 8.52548 12226 ft 342 kts 65°
2026-05-06 17:35 53.41739 8.56062 11488 ft 334 kts 64°
2026-05-06 17:36 53.43628 8.63070 10963 ft 332 kts 64°
2026-05-06 17:36 53.44576 8.66632 10912 ft 337 kts 65°
2026-05-06 17:36 53.45519 8.70176 10861 ft 331 kts 65°
2026-05-06 17:36 53.46433 8.73609 10829 ft 304 kts 65°
2026-05-06 17:37 53.47263 8.76719 10869 ft 288 kts 65°
2026-05-06 17:37 53.48075 8.79739 10910 ft 287 kts 65°
2026-05-06 17:37 53.48898 8.82796 10918 ft 284 kts 64°
2026-05-06 17:37 53.49701 8.85787 10941 ft 284 kts 65°
2026-05-06 17:38 53.50511 8.88809 10949 ft 286 kts 65°
2026-05-06 17:38 53.51336 8.91881 10919 ft 285 kts 64°
2026-05-06 17:38 53.52150 8.94901 10903 ft 286 kts 64°
2026-05-06 17:38 53.52972 8.97929 10913 ft 287 kts 63°
2026-05-06 17:39 53.54023 9.00794 10917 ft 285 kts 50°
2026-05-06 17:39 53.55403 9.03108 10910 ft 284 kts 38°
2026-05-06 17:39 53.57003 9.05061 10936 ft 285 kts 34°
2026-05-06 17:39 53.58644 9.06920 10935 ft 286 kts 33°
2026-05-06 17:40 53.60294 9.08806 10913 ft 286 kts 34°
2026-05-06 17:40 53.61919 9.10721 10921 ft 285 kts 35°
2026-05-06 17:40 53.63514 9.12632 10776 ft 282 kts 35°
2026-05-06 17:40 53.65115 9.14564 10032 ft 284 kts 36°
2026-05-06 17:41 53.66676 9.16456 9677 ft 275 kts 35°
2026-05-06 17:41 53.68249 9.18360 8935 ft 279 kts 36°
2026-05-06 17:41 53.69782 9.20214 8611 ft 269 kts 36°
2026-05-06 17:41 53.71291 9.22037 7906 ft 272 kts 36°
2026-05-06 17:42 53.72798 9.23854 7559 ft 263 kts 36°
2026-05-06 17:42 53.74280 9.25640 7052 ft 260 kts 36°
2026-05-06 17:42 53.75706 9.27354 6936 ft 244 kts 36°
2026-05-06 17:42 53.77031 9.28943 6911 ft 228 kts 36°
2026-05-06 17:43 53.78333 9.30507 6956 ft 231 kts 36°
2026-05-06 17:43 53.79367 9.32514 6926 ft 229 kts 71°
2026-05-06 17:43 53.79387 9.35215 7038 ft 242 kts 108°
2026-05-06 17:43 53.78505 9.37664 6939 ft 239 kts 128°
2026-05-06 17:44 53.77370 9.39588 6847 ft 229 kts 135°
2026-05-06 17:44 53.76106 9.41252 6906 ft 235 kts 143°
2026-05-06 17:44 53.74665 9.42632 6939 ft 240 kts 152°
2026-05-06 17:44 53.73143 9.43680 6868 ft 233 kts 158°
2026-05-06 17:45 53.71587 9.44502 6920 ft 238 kts 161°
2026-05-06 17:45 53.69958 9.45205 6937 ft 242 kts 163°
2026-05-06 17:45 53.68338 9.45793 6873 ft 235 kts 165°
2026-05-06 17:45 53.66715 9.46321 6933 ft 240 kts 166°
2026-05-06 17:46 53.65070 9.46825 6935 ft 242 kts 167°
2026-05-06 17:46 53.63443 9.47299 6880 ft 236 kts 167°
2026-05-06 17:46 53.61805 9.47764 6935 ft 240 kts 167°
2026-05-06 17:46 53.60162 9.48225 6940 ft 241 kts 167°
2026-05-06 17:47 53.58527 9.48674 6664 ft 239 kts 167°
2026-05-06 17:47 53.56892 9.49118 6340 ft 236 kts 167°
2026-05-06 17:47 53.55277 9.49553 5979 ft 237 kts 167°
2026-05-06 17:47 53.53648 9.49988 5761 ft 233 kts 167°
2026-05-06 17:48 53.52094 9.50398 5653 ft 224 kts 167°
2026-05-06 17:48 53.50550 9.50541 5479 ft 223 kts 185°
2026-05-06 17:48 53.49085 9.49577 5065 ft 232 kts 221°
2026-05-06 17:48 53.48005 9.47652 5072 ft 233 kts 231°
2026-05-06 17:49 53.47011 9.45468 5005 ft 235 kts 233°
2026-05-06 17:49 53.46049 9.43318 4947 ft 229 kts 232°
2026-05-06 17:49 53.45053 9.41176 5022 ft 235 kts 230°
2026-05-06 17:49 53.43998 9.39029 5027 ft 244 kts 227°
2026-05-06 17:50 53.42624 9.37495 4976 ft 236 kts 190°
2026-05-06 17:50 53.40982 9.37444 5079 ft 240 kts 159°
2026-05-06 17:50 53.39594 9.38746 4972 ft 221 kts 126°
2026-05-06 17:50 53.38852 9.40887 4659 ft 218 kts 103°
2026-05-06 17:51 53.38561 9.43397 4739 ft 228 kts 91°
2026-05-06 17:51 53.38502 9.45996 5057 ft 225 kts 86°
2026-05-06 17:51 53.38545 9.48562 4903 ft 217 kts 84°
2026-05-06 17:51 53.39041 9.50768 4934 ft 204 kts 46°
2026-05-06 17:52 53.40088 9.52472 5062 ft 215 kts 44°
2026-05-06 17:52 53.41134 9.54274 4929 ft 208 kts 49°
2026-05-06 17:52 53.42034 9.56083 4920 ft 203 kts 51°
2026-05-06 17:52 53.42934 9.57967 4990 ft 209 kts 51°
2026-05-06 17:53 53.43855 9.59854 4962 ft 208 kts 50°
2026-05-06 17:53 53.44767 9.61690 4929 ft 206 kts 50°
2026-05-06 17:53 53.45696 9.63575 5002 ft 213 kts 50°
2026-05-06 17:53 53.46621 9.65473 4964 ft 208 kts 51°
2026-05-06 17:54 53.47530 9.67329 4957 ft 208 kts 51°
2026-05-06 17:54 53.48455 9.69209 4991 ft 208 kts 51°
2026-05-06 17:54 53.49382 9.71095 4665 ft 209 kts 51°
2026-05-06 17:54 53.50283 9.72929 4418 ft 203 kts 51°
2026-05-06 17:55 53.51190 9.74778 3982 ft 206 kts 51°
2026-05-06 17:55 53.52085 9.76598 3750 ft 201 kts 51°
2026-05-06 17:55 53.52979 9.78415 3375 ft 201 kts 51°
2026-05-06 17:55 53.53860 9.80203 3101 ft 199 kts 51°
2026-05-06 17:56 53.54707 9.81932 2961 ft 179 kts 51°
2026-05-06 17:56 53.55476 9.83514 2883 ft 170 kts 50°
2026-05-06 17:56 53.56230 9.85014 2524 ft 165 kts 50°
2026-05-06 17:56 53.56929 9.86414 2399 ft 148 kts 51°
2026-05-06 17:57 53.57562 9.87706 2118 ft 144 kts 51°
2026-05-06 17:57 53.58206 9.89030 1709 ft 147 kts 50°
2026-05-06 17:57 53.58842 9.90326 1393 ft 146 kts 52°
2026-05-06 17:57 53.59495 9.91756 865 ft 155 kts 52°
2026-05-06 17:58 53.60160 9.93154 556 ft 152 kts 49°
2026-05-06 17:58 53.60858 9.94442 430 ft 151 kts 46°
2026-05-06 17:58 53.61559 9.95837 275 ft 159 kts 51°
2026-05-06 17:58 53.62259 9.97203 33 ft 143 kts 50°
2026-05-06 17:59 53.62776 9.98260 40 ft 102 kts 52°
2026-05-06 17:59 53.63125 9.99003 39 ft 43 kts 49°
2026-05-06 17:59 53.63273 9.99343 36 ft 34 kts 67°
2026-05-06 17:59 53.63282 9.99590 36 ft 0 kts 98°
2026-05-06 18:00 53.63279 9.99620 36 ft 4 kts 98°
2026-05-06 18:00 53.63273 9.99692 35 ft 0 kts 97°
2026-05-06 18:00 53.63273 9.99693 35 ft 0 kts 97°
2026-05-06 18:00 53.63273 9.99696 35 ft 1 kts 91°
2026-05-06 18:01 53.63276 9.99732 35 ft 0 kts 56°
2026-05-06 18:01 53.63286 9.99758 35 ft 4 kts 57°
2026-05-06 18:01 53.63312 9.99821 35 ft 8 kts 55°
2026-05-06 18:01 53.63344 9.99896 36 ft 0 kts 53°
2026-05-06 18:02 53.63348 9.99905 36 ft 0 kts 53°
2026-05-06 18:02 53.63351 9.99912 36 ft 3 kts 52°
2026-05-06 18:03 53.63364 9.99941 36 ft 3 kts 50°
2026-05-06 18:03 53.63396 10.00007 37 ft 10 kts 56°
2026-05-06 18:03 53.63414 10.00110 42 ft 4 kts 101°
2026-05-06 18:03 53.63410 10.00127 42 ft 1 kts 113°
2026-05-06 18:04 53.63390 10.00175 44 ft 8 kts 143°
2026-05-06 18:04 53.63312 10.00199 43 ft 16 kts 175°
2026-05-06 18:04 53.63158 10.00220 41 ft 19 kts 174°
2026-05-06 18:04 53.63110 10.00251 42 ft 6 kts 130°
2026-05-06 18:05 53.63100 10.00288 44 ft 0 kts 96°
2026-05-06 18:05 53.63100 10.00291 44 ft 0 kts 91°
2026-05-06 18:05 53.63100 10.00292 44 ft 0 kts 89°
2026-05-06 18:05 53.63100 10.00300 44 ft 1 kts 86°
2026-05-06 18:06 53.63102 10.00329 46 ft 3 kts 85°
2026-05-06 18:06 53.63104 10.00376 47 ft 3 kts 85°
2026-05-06 18:06 53.63104 10.00387 48 ft 0 kts 85°